Year,Month,Day,Hour,Minute,Value (Times are PST for temperature in C)
2012,05,26,00,00,13.00
2012,05,26,00,01,13.00
2012,05,26,00,02,13.00
2012,05,26,00,03,13.00
2012,05,26,00,04,13.00
2012,05,26,00,05,13.10
2012,05,26,00,06,13.10
2012,05,26,00,07,13.10
2012,05,26,00,08,13.10
2012,05,26,00,09,13.10
2012,05,26,00,10,13.00
2012,05,26,00,11,13.00
2012,05,26,00,12,13.00
2012,05,26,00,13,13.10
2012,05,26,00,14,13.20
2012,05,26,00,15,13.20
2012,05,26,00,16,13.20
2012,05,26,00,17,13.30
2012,05,26,00,18,13.30
2012,05,26,00,19,13.30
2012,05,26,00,20,13.30
2012,05,26,00,21,13.30
2012,05,26,00,22,13.30
2012,05,26,00,23,13.30
2012,05,26,00,24,13.30
2012,05,26,00,25,13.20
2012,05,26,00,26,13.20
2012,05,26,00,27,13.10
2012,05,26,00,28,13.10
2012,05,26,00,29,13.10
2012,05,26,00,30,13.00
2012,05,26,00,31,13.00
2012,05,26,00,32,12.90
2012,05,26,00,33,12.90
2012,05,26,00,34,12.90
2012,05,26,00,35,12.90
2012,05,26,00,36,12.90
2012,05,26,00,37,12.80
2012,05,26,00,38,12.80
2012,05,26,00,39,12.80
2012,05,26,00,40,12.80
2012,05,26,00,41,12.80
2012,05,26,00,42,12.80
2012,05,26,00,43,12.80
2012,05,26,00,44,12.80
2012,05,26,00,45,12.80
2012,05,26,00,46,12.70
2012,05,26,00,47,12.70
2012,05,26,00,48,12.60
2012,05,26,00,49,12.60
2012,05,26,00,50,12.60
2012,05,26,00,51,12.60
2012,05,26,00,52,12.60
2012,05,26,00,53,12.50
2012,05,26,00,54,12.50
2012,05,26,00,55,12.50
2012,05,26,00,56,12.40
2012,05,26,00,57,12.40
2012,05,26,00,58,12.40
2012,05,26,00,59,12.30
2012,05,26,01,00,12.30
2012,05,26,01,01,12.30
2012,05,26,01,02,12.30
2012,05,26,01,03,12.30
2012,05,26,01,04,12.20
2012,05,26,01,05,12.20
2012,05,26,01,06,12.20
2012,05,26,01,07,12.10
2012,05,26,01,08,12.10
2012,05,26,01,09,12.10
2012,05,26,01,10,12.10
2012,05,26,01,11,12.00
2012,05,26,01,12,12.00
2012,05,26,01,13,12.00
2012,05,26,01,14,12.00
2012,05,26,01,15,12.00
2012,05,26,01,16,12.00
2012,05,26,01,17,12.00
2012,05,26,01,18,11.90
2012,05,26,01,19,11.90
2012,05,26,01,20,11.90
2012,05,26,01,21,11.90
2012,05,26,01,22,11.90
2012,05,26,01,23,11.90
2012,05,26,01,24,11.80
2012,05,26,01,25,11.80
2012,05,26,01,26,11.80
2012,05,26,01,27,11.80
2012,05,26,01,28,11.80
2012,05,26,01,29,11.80
2012,05,26,01,30,11.80
2012,05,26,01,31,11.80
2012,05,26,01,32,11.70
2012,05,26,01,33,11.70
2012,05,26,01,34,11.70
2012,05,26,01,35,11.60
2012,05,26,01,36,11.60
2012,05,26,01,37,11.60
2012,05,26,01,38,11.60
2012,05,26,01,39,11.60
2012,05,26,01,40,11.60
2012,05,26,01,41,11.50
2012,05,26,01,42,11.40
2012,05,26,01,43,11.40
2012,05,26,01,44,11.40
2012,05,26,01,45,11.40
2012,05,26,01,46,11.30
2012,05,26,01,47,11.30
2012,05,26,01,48,11.20
2012,05,26,01,49,11.20
2012,05,26,01,50,11.10
2012,05,26,01,51,11.10
2012,05,26,01,52,11.10
2012,05,26,01,53,11.10
2012,05,26,01,54,11.10
2012,05,26,01,55,11.00
2012,05,26,01,56,10.90
2012,05,26,01,57,10.90
2012,05,26,01,58,10.90
2012,05,26,01,59,10.90
2012,05,26,02,00,10.90
2012,05,26,02,01,10.90
2012,05,26,02,02,10.90
2012,05,26,02,03,10.90
2012,05,26,02,04,10.90
2012,05,26,02,05,10.80
2012,05,26,02,06,10.80
2012,05,26,02,07,10.80
2012,05,26,02,08,10.80
2012,05,26,02,09,10.80
2012,05,26,02,10,10.70
2012,05,26,02,11,10.70
2012,05,26,02,12,10.70
2012,05,26,02,13,10.70
2012,05,26,02,14,10.70
2012,05,26,02,15,10.60
2012,05,26,02,16,10.60
2012,05,26,02,17,10.60
2012,05,26,02,18,10.60
2012,05,26,02,19,10.50
2012,05,26,02,20,10.40
2012,05,26,02,21,10.40
2012,05,26,02,22,10.40
2012,05,26,02,23,10.40
2012,05,26,02,24,10.30
2012,05,26,02,25,10.30
2012,05,26,02,26,10.20
2012,05,26,02,27,10.20
2012,05,26,02,28,10.20
2012,05,26,02,29,10.10
2012,05,26,02,30,10.10
2012,05,26,02,31,10.10
2012,05,26,02,32,10.10
2012,05,26,02,33,10.10
2012,05,26,02,34,10.10
2012,05,26,02,35,10.10
2012,05,26,02,36,10.10
2012,05,26,02,37,10.10
2012,05,26,02,38,10.10
2012,05,26,02,39,10.10
2012,05,26,02,40,10.00
2012,05,26,02,41,9.90
2012,05,26,02,42,9.90
2012,05,26,02,43,9.90
2012,05,26,02,44,9.90
2012,05,26,02,45,9.90
2012,05,26,02,46,9.90
2012,05,26,02,47,10.00
2012,05,26,02,48,10.10
2012,05,26,02,49,10.10
2012,05,26,02,50,10.10
2012,05,26,02,51,10.10
2012,05,26,02,52,10.10
2012,05,26,02,53,10.20
2012,05,26,02,54,10.20
2012,05,26,02,55,10.20
2012,05,26,02,56,10.20
2012,05,26,02,57,10.20
2012,05,26,02,58,10.20
2012,05,26,02,59,10.20
2012,05,26,03,00,10.20
2012,05,26,03,01,10.20
2012,05,26,03,02,10.20
2012,05,26,03,03,10.20
2012,05,26,03,04,10.20
2012,05,26,03,05,10.20
2012,05,26,03,06,10.20
2012,05,26,03,07,10.30
2012,05,26,03,08,10.30
2012,05,26,03,09,10.30
2012,05,26,03,10,10.30
2012,05,26,03,11,10.30
2012,05,26,03,12,10.30
2012,05,26,03,13,10.40
2012,05,26,03,14,10.40
2012,05,26,03,15,10.40
2012,05,26,03,16,10.40
2012,05,26,03,17,10.40
2012,05,26,03,18,10.40
2012,05,26,03,19,10.40
2012,05,26,03,20,10.40
2012,05,26,03,21,10.30
2012,05,26,03,22,10.30
2012,05,26,03,23,10.30
2012,05,26,03,24,10.30
2012,05,26,03,25,10.30
2012,05,26,03,26,10.30
2012,05,26,03,27,10.30
2012,05,26,03,28,10.30
2012,05,26,03,29,10.20
2012,05,26,03,30,10.20
2012,05,26,03,31,10.20
2012,05,26,03,32,10.20
2012,05,26,03,33,10.20
2012,05,26,03,34,10.20
2012,05,26,03,35,10.30
2012,05,26,03,36,10.30
2012,05,26,03,37,10.30
2012,05,26,03,38,10.30
2012,05,26,03,39,10.30
2012,05,26,03,40,10.30
2012,05,26,03,41,10.40
2012,05,26,03,42,10.40
2012,05,26,03,43,10.40
2012,05,26,03,44,10.40
2012,05,26,03,45,10.40
2012,05,26,03,46,10.40
2012,05,26,03,47,10.30
2012,05,26,03,48,10.30
2012,05,26,03,49,10.30
2012,05,26,03,50,10.30
2012,05,26,03,51,10.20
2012,05,26,03,52,10.20
2012,05,26,03,53,10.20
2012,05,26,03,54,10.10
2012,05,26,03,55,10.10
2012,05,26,03,56,10.10
2012,05,26,03,57,10.10
2012,05,26,03,58,10.10
2012,05,26,03,59,10.10
2012,05,26,04,00,10.00
2012,05,26,04,01,9.90
2012,05,26,04,02,9.90
2012,05,26,04,03,9.90
2012,05,26,04,04,9.90
2012,05,26,04,05,9.90
2012,05,26,04,06,9.90
2012,05,26,04,07,9.90
2012,05,26,04,08,9.80
2012,05,26,04,09,9.80
2012,05,26,04,10,9.70
2012,05,26,04,11,9.70
2012,05,26,04,12,9.70
2012,05,26,04,13,9.70
2012,05,26,04,14,9.60
2012,05,26,04,15,9.60
2012,05,26,04,16,9.60
2012,05,26,04,17,9.60
2012,05,26,04,18,9.50
2012,05,26,04,19,9.50
2012,05,26,04,20,9.50
2012,05,26,04,21,9.40
2012,05,26,04,22,9.40
2012,05,26,04,23,9.30
2012,05,26,04,24,9.30
2012,05,26,04,25,9.30
2012,05,26,04,26,9.30
2012,05,26,04,27,9.20
2012,05,26,04,28,9.20
2012,05,26,04,29,9.20
2012,05,26,04,30,9.20
2012,05,26,04,31,9.20
2012,05,26,04,32,9.20
2012,05,26,04,33,9.20
2012,05,26,04,34,9.20
2012,05,26,04,35,9.20
2012,05,26,04,36,9.20
2012,05,26,04,37,9.20
2012,05,26,04,38,9.20
2012,05,26,04,39,9.10
2012,05,26,04,40,9.10
2012,05,26,04,41,9.10
2012,05,26,04,42,9.10
2012,05,26,04,43,9.10
2012,05,26,04,44,9.00
2012,05,26,04,45,9.00
2012,05,26,04,46,9.00
2012,05,26,04,47,9.10
2012,05,26,04,48,9.10
2012,05,26,04,49,9.20
2012,05,26,04,50,9.20
2012,05,26,04,51,9.20
2012,05,26,04,52,9.20
2012,05,26,04,53,9.30
2012,05,26,04,54,9.30
2012,05,26,04,55,9.30
2012,05,26,04,56,9.40
2012,05,26,04,57,9.40
2012,05,26,04,58,9.40
2012,05,26,04,59,9.40
2012,05,26,05,00,9.50
2012,05,26,05,01,9.50
2012,05,26,05,02,9.50
2012,05,26,05,03,9.60
2012,05,26,05,04,9.60
2012,05,26,05,05,9.70
2012,05,26,05,06,9.70
2012,05,26,05,07,9.80
2012,05,26,05,08,9.80
2012,05,26,05,09,9.90
2012,05,26,05,10,9.90
2012,05,26,05,11,9.90
2012,05,26,05,12,9.90
2012,05,26,05,13,9.90
2012,05,26,05,14,9.90
2012,05,26,05,15,9.90
2012,05,26,05,16,9.90
2012,05,26,05,17,9.90
2012,05,26,05,18,10.00
2012,05,26,05,19,10.00
2012,05,26,05,20,10.10
2012,05,26,05,21,10.10
2012,05,26,05,22,10.10
2012,05,26,05,23,10.10
2012,05,26,05,24,10.10
2012,05,26,05,25,10.20
2012,05,26,05,26,10.20
2012,05,26,05,27,10.20
2012,05,26,05,28,10.20
2012,05,26,05,29,10.20
2012,05,26,05,30,10.30
2012,05,26,05,31,10.30
2012,05,26,05,32,10.30
2012,05,26,05,33,10.30
2012,05,26,05,34,10.30
2012,05,26,05,35,10.30
2012,05,26,05,36,10.30
2012,05,26,05,37,10.40
2012,05,26,05,38,10.40
2012,05,26,05,39,10.40
2012,05,26,05,40,10.50
2012,05,26,05,41,10.60
2012,05,26,05,42,10.60
2012,05,26,05,43,10.60
2012,05,26,05,44,10.70
2012,05,26,05,45,10.70
2012,05,26,05,46,10.80
2012,05,26,05,47,10.80
2012,05,26,05,48,10.90
2012,05,26,05,49,10.90
2012,05,26,05,50,10.90
2012,05,26,05,51,10.90
2012,05,26,05,52,11.00
2012,05,26,05,53,11.10
2012,05,26,05,54,11.10
2012,05,26,05,55,11.10
2012,05,26,05,56,11.20
2012,05,26,05,57,11.20
2012,05,26,05,58,11.30
2012,05,26,05,59,11.30
2012,05,26,06,00,11.40
2012,05,26,06,01,11.40
2012,05,26,06,02,11.40
2012,05,26,06,03,11.50
2012,05,26,06,04,11.60
2012,05,26,06,05,11.60
2012,05,26,06,06,11.60
2012,05,26,06,07,11.60
2012,05,26,06,08,11.60
2012,05,26,06,09,11.60
2012,05,26,06,10,11.60
2012,05,26,06,11,11.60
2012,05,26,06,12,11.70
2012,05,26,06,13,11.70
2012,05,26,06,14,11.70
2012,05,26,06,15,11.70
2012,05,26,06,16,11.70
2012,05,26,06,17,11.70
2012,05,26,06,18,11.80
2012,05,26,06,19,11.80
2012,05,26,06,20,11.80
2012,05,26,06,21,11.80
2012,05,26,06,22,11.90
2012,05,26,06,23,11.90
2012,05,26,06,24,12.00
2012,05,26,06,25,12.00
2012,05,26,06,26,12.00
2012,05,26,06,27,12.10
2012,05,26,06,28,12.10
2012,05,26,06,29,12.10
2012,05,26,06,30,12.20
2012,05,26,06,31,12.20
2012,05,26,06,32,12.30
2012,05,26,06,33,12.30
2012,05,26,06,34,12.30
2012,05,26,06,35,12.30
2012,05,26,06,36,12.30
2012,05,26,06,37,12.30
2012,05,26,06,38,12.30
2012,05,26,06,39,12.30
2012,05,26,06,40,12.30
2012,05,26,06,41,12.40
2012,05,26,06,42,12.40
2012,05,26,06,43,12.40
2012,05,26,06,44,12.50
2012,05,26,06,45,12.50
2012,05,26,06,46,12.50
2012,05,26,06,47,12.60
2012,05,26,06,48,12.60
2012,05,26,06,49,12.60
2012,05,26,06,50,12.60
2012,05,26,06,51,12.60
2012,05,26,06,52,12.70
2012,05,26,06,53,12.70
2012,05,26,06,54,12.70
2012,05,26,06,55,12.70
2012,05,26,06,56,12.70
2012,05,26,06,57,12.60
2012,05,26,06,58,12.60
2012,05,26,06,59,12.60
2012,05,26,07,00,12.60
2012,05,26,07,01,12.60
2012,05,26,07,02,12.60
2012,05,26,07,03,12.60
2012,05,26,07,04,12.50
2012,05,26,07,05,12.50
2012,05,26,07,06,12.60
2012,05,26,07,07,12.60
2012,05,26,07,08,12.60
2012,05,26,07,09,12.60
2012,05,26,07,10,12.60
2012,05,26,07,11,12.60
2012,05,26,07,12,12.60
2012,05,26,07,13,12.70
2012,05,26,07,14,12.70
2012,05,26,07,15,12.70
2012,05,26,07,16,12.80
2012,05,26,07,17,12.80
2012,05,26,07,18,12.80
2012,05,26,07,19,12.80
2012,05,26,07,20,12.90
2012,05,26,07,21,12.90
2012,05,26,07,22,13.00
2012,05,26,07,23,13.00
2012,05,26,07,24,13.00
2012,05,26,07,25,13.00
2012,05,26,07,26,13.00
2012,05,26,07,27,13.00
2012,05,26,07,28,13.00
2012,05,26,07,29,13.00
2012,05,26,07,30,13.00
2012,05,26,07,31,13.00
2012,05,26,07,32,13.00
2012,05,26,07,33,13.00
2012,05,26,07,34,13.10
2012,05,26,07,35,13.10
2012,05,26,07,36,13.10
2012,05,26,07,37,13.10
2012,05,26,07,38,13.10
2012,05,26,07,39,13.10
2012,05,26,07,40,13.10
2012,05,26,07,41,13.10
2012,05,26,07,42,13.10
2012,05,26,07,43,13.10
2012,05,26,07,44,13.10
2012,05,26,07,45,13.10
2012,05,26,07,46,13.10
2012,05,26,07,47,13.20
2012,05,26,07,48,13.20
2012,05,26,07,49,13.30
2012,05,26,07,50,13.30
2012,05,26,07,51,13.30
2012,05,26,07,52,13.30
2012,05,26,07,53,13.40
2012,05,26,07,54,13.40
2012,05,26,07,55,13.50
2012,05,26,07,56,13.50
2012,05,26,07,57,13.50
2012,05,26,07,58,13.50
2012,05,26,07,59,13.50
2012,05,26,08,00,13.50
2012,05,26,08,01,13.60
2012,05,26,08,02,13.60
2012,05,26,08,03,13.60
2012,05,26,08,04,13.60
2012,05,26,08,05,13.70
2012,05,26,08,06,13.70
2012,05,26,08,07,13.70
2012,05,26,08,08,13.80
2012,05,26,08,09,13.80
2012,05,26,08,10,13.90
2012,05,26,08,11,13.90
2012,05,26,08,12,14.00
2012,05,26,08,13,14.00
2012,05,26,08,14,14.10
2012,05,26,08,15,14.10
2012,05,26,08,16,14.20
2012,05,26,08,17,14.20
2012,05,26,08,18,14.20
2012,05,26,08,19,14.30
2012,05,26,08,20,14.30
2012,05,26,08,21,14.40
2012,05,26,08,22,14.40
2012,05,26,08,23,14.50
2012,05,26,08,24,14.50
2012,05,26,08,25,14.60
2012,05,26,08,26,14.60
2012,05,26,08,27,14.60
2012,05,26,08,28,14.70
2012,05,26,08,29,14.70
2012,05,26,08,30,14.70
2012,05,26,08,31,14.80
2012,05,26,08,32,14.80
2012,05,26,08,33,14.80
2012,05,26,08,34,14.90
2012,05,26,08,35,15.00
2012,05,26,08,36,15.00
2012,05,26,08,37,15.10
2012,05,26,08,38,15.10
2012,05,26,08,39,15.10
2012,05,26,08,40,15.00
2012,05,26,08,41,15.00
2012,05,26,08,42,14.90
2012,05,26,08,43,14.90
2012,05,26,08,44,14.90
2012,05,26,08,45,14.90
2012,05,26,08,46,14.90
2012,05,26,08,47,14.90
2012,05,26,08,48,14.90
2012,05,26,08,49,14.80
2012,05,26,08,50,14.80
2012,05,26,08,51,14.80
2012,05,26,08,52,14.80
2012,05,26,08,53,14.80
2012,05,26,08,54,14.80
2012,05,26,08,55,14.80
2012,05,26,08,56,14.80
2012,05,26,08,57,14.80
2012,05,26,08,58,14.80
2012,05,26,08,59,14.70
2012,05,26,09,00,14.70
2012,05,26,09,01,14.80
2012,05,26,09,02,14.80
2012,05,26,09,03,14.80
2012,05,26,09,04,14.80
2012,05,26,09,05,14.80
2012,05,26,09,06,14.80
2012,05,26,09,07,14.80
2012,05,26,09,08,14.80
2012,05,26,09,09,14.70
2012,05,26,09,10,14.70
2012,05,26,09,11,14.70
2012,05,26,09,12,14.70
2012,05,26,09,13,14.70
2012,05,26,09,14,14.70
2012,05,26,09,15,14.80
2012,05,26,09,16,14.80
2012,05,26,09,17,14.80
2012,05,26,09,18,14.90
2012,05,26,09,19,15.00
2012,05,26,09,20,15.10
2012,05,26,09,21,15.20
2012,05,26,09,22,15.20
2012,05,26,09,23,15.30
2012,05,26,09,24,15.30
2012,05,26,09,25,15.30
2012,05,26,09,26,15.40
2012,05,26,09,27,15.40
2012,05,26,09,28,15.50
2012,05,26,09,29,15.50
2012,05,26,09,30,15.50
2012,05,26,09,31,15.60
2012,05,26,09,32,15.50
2012,05,26,09,33,15.50
2012,05,26,09,34,15.30
2012,05,26,09,35,15.30
2012,05,26,09,36,15.30
2012,05,26,09,37,15.20
2012,05,26,09,38,15.10
2012,05,26,09,39,15.00
2012,05,26,09,40,15.00
2012,05,26,09,41,14.90
2012,05,26,09,42,14.90
2012,05,26,09,43,14.90
2012,05,26,09,44,14.80
2012,05,26,09,45,14.80
2012,05,26,09,46,14.80
2012,05,26,09,47,14.80
2012,05,26,09,48,14.80
2012,05,26,09,49,14.80
2012,05,26,09,50,14.80
2012,05,26,09,51,14.80
2012,05,26,09,52,14.80
2012,05,26,09,53,14.80
2012,05,26,09,54,14.80
2012,05,26,09,55,14.80
2012,05,26,09,56,14.90
2012,05,26,09,57,15.00
2012,05,26,09,58,15.00
2012,05,26,09,59,15.10
2012,05,26,10,00,15.20
2012,05,26,10,01,15.30
2012,05,26,10,02,15.30
2012,05,26,10,03,15.30
2012,05,26,10,04,15.40
2012,05,26,10,05,15.40
2012,05,26,10,06,15.40
2012,05,26,10,07,15.40
2012,05,26,10,08,15.50
2012,05,26,10,09,15.50
2012,05,26,10,10,15.60
2012,05,26,10,11,15.60
2012,05,26,10,12,15.60
2012,05,26,10,13,15.60
2012,05,26,10,14,15.60
2012,05,26,10,15,15.50
2012,05,26,10,16,15.40
2012,05,26,10,17,15.40
2012,05,26,10,18,15.30
2012,05,26,10,19,15.30
2012,05,26,10,20,15.40
2012,05,26,10,21,15.50
2012,05,26,10,22,15.50
2012,05,26,10,23,15.50
2012,05,26,10,24,15.50
2012,05,26,10,25,15.50
2012,05,26,10,26,15.40
2012,05,26,10,27,15.40
2012,05,26,10,28,15.40
2012,05,26,10,29,15.40
2012,05,26,10,30,15.40
2012,05,26,10,31,15.50
2012,05,26,10,32,15.50
2012,05,26,10,33,15.60
2012,05,26,10,34,15.60
2012,05,26,10,35,15.70
2012,05,26,10,36,15.70
2012,05,26,10,37,15.80
2012,05,26,10,38,15.80
2012,05,26,10,39,16.00
2012,05,26,10,40,16.10
2012,05,26,10,41,16.20
2012,05,26,10,42,16.20
2012,05,26,10,43,16.20
2012,05,26,10,44,16.20
2012,05,26,10,45,16.10
2012,05,26,10,46,16.10
2012,05,26,10,47,16.10
2012,05,26,10,48,16.10
2012,05,26,10,49,15.90
2012,05,26,10,50,15.90
2012,05,26,10,51,15.90
2012,05,26,10,52,16.00
2012,05,26,10,53,16.10
2012,05,26,10,54,16.10
2012,05,26,10,55,16.20
2012,05,26,10,56,16.20
2012,05,26,10,57,16.10
2012,05,26,10,58,16.20
2012,05,26,10,59,16.20
2012,05,26,11,00,16.30
2012,05,26,11,01,16.40
2012,05,26,11,02,16.40
2012,05,26,11,03,16.40
2012,05,26,11,04,16.60
2012,05,26,11,05,16.70
2012,05,26,11,06,16.70
2012,05,26,11,07,16.70
2012,05,26,11,08,16.70
2012,05,26,11,09,16.80
2012,05,26,11,10,16.80
2012,05,26,11,11,16.90
2012,05,26,11,12,17.00
2012,05,26,11,13,17.00
2012,05,26,11,14,17.10
2012,05,26,11,15,17.20
2012,05,26,11,16,17.10
2012,05,26,11,17,17.10
2012,05,26,11,18,17.10
2012,05,26,11,19,17.00
2012,05,26,11,20,17.00
2012,05,26,11,21,16.90
2012,05,26,11,22,16.80
2012,05,26,11,23,16.80
2012,05,26,11,24,16.80
2012,05,26,11,25,16.80
2012,05,26,11,26,16.80
2012,05,26,11,27,16.80
2012,05,26,11,28,16.80
2012,05,26,11,29,16.80
2012,05,26,11,30,16.90
2012,05,26,11,31,17.00
2012,05,26,11,32,17.10
2012,05,26,11,33,17.30
2012,05,26,11,34,17.30
2012,05,26,11,35,17.30
2012,05,26,11,36,17.40
2012,05,26,11,37,17.50
2012,05,26,11,38,17.50
2012,05,26,11,39,17.50
2012,05,26,11,40,17.40
2012,05,26,11,41,17.40
2012,05,26,11,42,17.30
2012,05,26,11,43,17.30
2012,05,26,11,44,17.30
2012,05,26,11,45,17.40
2012,05,26,11,46,17.40
2012,05,26,11,47,17.40
2012,05,26,11,48,17.50
2012,05,26,11,49,17.50
2012,05,26,11,50,17.50
2012,05,26,11,51,17.50
2012,05,26,11,52,17.50
2012,05,26,11,53,17.50
2012,05,26,11,54,17.60
2012,05,26,11,55,17.70
2012,05,26,11,56,17.70
2012,05,26,11,57,17.70
2012,05,26,11,58,17.90
2012,05,26,11,59,17.90
2012,05,26,12,00,18.10
2012,05,26,12,01,18.10
2012,05,26,12,02,18.10
2012,05,26,12,03,18.00
2012,05,26,12,04,18.10
2012,05,26,12,05,18.10
2012,05,26,12,06,18.20
2012,05,26,12,07,18.20
2012,05,26,12,08,18.20
2012,05,26,12,09,18.20
2012,05,26,12,10,18.20
2012,05,26,12,11,18.20
2012,05,26,12,12,18.20
2012,05,26,12,13,18.30
2012,05,26,12,14,18.30
2012,05,26,12,15,18.40
2012,05,26,12,16,18.40
2012,05,26,12,17,18.40
2012,05,26,12,18,18.40
2012,05,26,12,19,18.40
2012,05,26,12,20,18.40
2012,05,26,12,21,18.50
2012,05,26,12,22,18.60
2012,05,26,12,23,18.60
2012,05,26,12,24,18.70
2012,05,26,12,25,18.80
2012,05,26,12,26,18.90
2012,05,26,12,27,19.00
2012,05,26,12,28,19.10
2012,05,26,12,29,19.30
2012,05,26,12,30,19.40
2012,05,26,12,31,19.50
2012,05,26,12,32,19.70
2012,05,26,12,33,19.80
2012,05,26,12,34,19.90
2012,05,26,12,35,19.90
2012,05,26,12,36,20.00
2012,05,26,12,37,20.10
2012,05,26,12,38,20.20
2012,05,26,12,39,20.20
2012,05,26,12,40,20.20
2012,05,26,12,41,20.30
2012,05,26,12,42,20.30
2012,05,26,12,43,20.30
2012,05,26,12,44,20.40
2012,05,26,12,45,20.50
2012,05,26,12,46,20.60
2012,05,26,12,47,20.70
2012,05,26,12,48,20.80
2012,05,26,12,49,20.90
2012,05,26,12,50,21.00
2012,05,26,12,51,21.10
2012,05,26,12,52,21.30
2012,05,26,12,53,21.40
2012,05,26,12,54,21.50
2012,05,26,12,55,21.60
2012,05,26,12,56,21.60
2012,05,26,12,57,21.60
2012,05,26,12,58,21.60
2012,05,26,12,59,21.60
2012,05,26,13,00,21.60
2012,05,26,13,01,21.60
2012,05,26,13,02,21.60
2012,05,26,13,03,21.70
2012,05,26,13,04,21.80
2012,05,26,13,05,21.90
2012,05,26,13,06,22.00
2012,05,26,13,07,22.10
2012,05,26,13,08,22.00
2012,05,26,13,09,22.00
2012,05,26,13,10,21.90
2012,05,26,13,11,21.90
2012,05,26,13,12,21.90
2012,05,26,13,13,22.00
2012,05,26,13,14,22.00
2012,05,26,13,15,22.10
2012,05,26,13,16,22.20
2012,05,26,13,17,22.20
2012,05,26,13,18,22.30
2012,05,26,13,19,22.40
2012,05,26,13,20,22.50
2012,05,26,13,21,22.40
2012,05,26,13,22,22.20
2012,05,26,13,23,22.00
2012,05,26,13,24,21.90
2012,05,26,13,25,21.80
2012,05,26,13,26,21.70
2012,05,26,13,27,21.60
2012,05,26,13,28,21.60
2012,05,26,13,29,21.50
2012,05,26,13,30,21.40
2012,05,26,13,31,21.40
2012,05,26,13,32,21.40
2012,05,26,13,33,21.60
2012,05,26,13,34,21.60
2012,05,26,13,35,21.60
2012,05,26,13,36,21.70
2012,05,26,13,37,21.80
2012,05,26,13,38,21.70
2012,05,26,13,39,21.60
2012,05,26,13,40,21.50
2012,05,26,13,41,21.40
2012,05,26,13,42,21.50
2012,05,26,13,43,21.60
2012,05,26,13,44,21.50
2012,05,26,13,45,21.50
2012,05,26,13,46,21.50
2012,05,26,13,47,21.40
2012,05,26,13,48,21.50
2012,05,26,13,49,21.70
2012,05,26,13,50,21.70
2012,05,26,13,51,21.80
2012,05,26,13,52,21.90
2012,05,26,13,53,22.00
2012,05,26,13,54,22.00
2012,05,26,13,55,22.10
2012,05,26,13,56,22.20
2012,05,26,13,57,22.30
2012,05,26,13,58,22.40
2012,05,26,13,59,22.50
2012,05,26,14,00,22.40
2012,05,26,14,01,22.40
2012,05,26,14,02,22.40
2012,05,26,14,03,22.50
2012,05,26,14,04,22.50
2012,05,26,14,05,22.50
2012,05,26,14,06,22.40
2012,05,26,14,07,22.50
2012,05,26,14,08,22.50
2012,05,26,14,09,22.50
2012,05,26,14,10,22.30
2012,05,26,14,11,22.20
2012,05,26,14,12,22.00
2012,05,26,14,13,21.70
2012,05,26,14,14,21.50
2012,05,26,14,15,21.40
2012,05,26,14,16,21.40
2012,05,26,14,17,21.50
2012,05,26,14,18,21.60
2012,05,26,14,19,21.80
2012,05,26,14,20,21.90
2012,05,26,14,21,22.00
2012,05,26,14,22,22.10
2012,05,26,14,23,22.10
2012,05,26,14,24,22.10
2012,05,26,14,25,22.10
2012,05,26,14,26,22.20
2012,05,26,14,27,22.30
2012,05,26,14,28,22.40
2012,05,26,14,29,22.50
2012,05,26,14,30,22.70
2012,05,26,14,31,22.90
2012,05,26,14,32,23.00
2012,05,26,14,33,23.00
2012,05,26,14,34,22.90
2012,05,26,14,35,22.90
2012,05,26,14,36,22.80
2012,05,26,14,37,22.70
2012,05,26,14,38,22.50
2012,05,26,14,39,22.50
2012,05,26,14,40,22.50
2012,05,26,14,41,22.40
2012,05,26,14,42,22.30
2012,05,26,14,43,22.30
2012,05,26,14,44,22.20
2012,05,26,14,45,22.00
2012,05,26,14,46,21.90
2012,05,26,14,47,21.80
2012,05,26,14,48,21.80
2012,05,26,14,49,21.90
2012,05,26,14,50,22.00
2012,05,26,14,51,22.10
2012,05,26,14,52,22.20
2012,05,26,14,53,22.10
2012,05,26,14,54,22.10
2012,05,26,14,55,22.10
2012,05,26,14,56,22.00
2012,05,26,14,57,21.90
2012,05,26,14,58,21.80
2012,05,26,14,59,21.80
2012,05,26,15,00,21.80
2012,05,26,15,01,21.80
2012,05,26,15,02,21.90
2012,05,26,15,03,22.10
2012,05,26,15,04,22.30
2012,05,26,15,05,22.40
2012,05,26,15,06,22.50
2012,05,26,15,07,22.50
2012,05,26,15,08,22.60
2012,05,26,15,09,22.70
2012,05,26,15,10,22.80
2012,05,26,15,11,22.90
2012,05,26,15,12,22.90
2012,05,26,15,13,22.90
2012,05,26,15,14,23.00
2012,05,26,15,15,23.10
2012,05,26,15,16,23.20
2012,05,26,15,17,23.10
2012,05,26,15,18,23.10
2012,05,26,15,19,23.10
2012,05,26,15,20,23.00
2012,05,26,15,21,22.90
2012,05,26,15,22,23.00
2012,05,26,15,23,23.10
2012,05,26,15,24,23.10
2012,05,26,15,25,23.00
2012,05,26,15,26,22.90
2012,05,26,15,27,22.90
2012,05,26,15,28,22.80
2012,05,26,15,29,22.80
2012,05,26,15,30,22.70
2012,05,26,15,31,22.80
2012,05,26,15,32,22.80
2012,05,26,15,33,22.80
2012,05,26,15,34,22.90
2012,05,26,15,35,22.90
2012,05,26,15,36,22.90
2012,05,26,15,37,22.90
2012,05,26,15,38,23.10
2012,05,26,15,39,23.20
2012,05,26,15,40,23.20
2012,05,26,15,41,23.30
2012,05,26,15,42,23.30
2012,05,26,15,43,23.30
2012,05,26,15,44,23.30
2012,05,26,15,45,23.40
2012,05,26,15,46,23.40
2012,05,26,15,47,23.40
2012,05,26,15,48,23.30
2012,05,26,15,49,23.10
2012,05,26,15,50,22.90
2012,05,26,15,51,22.80
2012,05,26,15,52,22.70
2012,05,26,15,53,22.60
2012,05,26,15,54,22.70
2012,05,26,15,55,22.60
2012,05,26,15,56,22.50
2012,05,26,15,57,22.50
2012,05,26,15,58,22.60
2012,05,26,15,59,22.60
2012,05,26,16,00,22.80
2012,05,26,16,01,22.90
2012,05,26,16,02,23.00
2012,05,26,16,03,23.10
2012,05,26,16,04,23.10
2012,05,26,16,05,23.10
2012,05,26,16,06,23.10
2012,05,26,16,07,23.00
2012,05,26,16,08,22.90
2012,05,26,16,09,22.90
2012,05,26,16,10,22.90
2012,05,26,16,11,22.80
2012,05,26,16,12,22.80
2012,05,26,16,13,22.90
2012,05,26,16,14,22.90
2012,05,26,16,15,22.90
2012,05,26,16,16,22.90
2012,05,26,16,17,22.80
2012,05,26,16,18,22.90
2012,05,26,16,19,22.90
2012,05,26,16,20,22.90
2012,05,26,16,21,22.90
2012,05,26,16,22,23.10
2012,05,26,16,23,23.10
2012,05,26,16,24,23.00
2012,05,26,16,25,22.90
2012,05,26,16,26,22.90
2012,05,26,16,27,22.70
2012,05,26,16,28,22.60
2012,05,26,16,29,22.40
2012,05,26,16,30,22.30
2012,05,26,16,31,22.30
2012,05,26,16,32,22.30
2012,05,26,16,33,22.30
2012,05,26,16,34,22.30
2012,05,26,16,35,22.30
2012,05,26,16,36,22.30
2012,05,26,16,37,22.40
2012,05,26,16,38,22.60
2012,05,26,16,39,22.60
2012,05,26,16,40,22.60
2012,05,26,16,41,22.70
2012,05,26,16,42,22.80
2012,05,26,16,43,22.80
2012,05,26,16,44,22.80
2012,05,26,16,45,22.70
2012,05,26,16,46,22.60
2012,05,26,16,47,22.70
2012,05,26,16,48,22.70
2012,05,26,16,49,22.90
2012,05,26,16,50,22.90
2012,05,26,16,51,23.00
2012,05,26,16,52,23.10
2012,05,26,16,53,23.20
2012,05,26,16,54,23.30
2012,05,26,16,55,23.30
2012,05,26,16,56,23.20
2012,05,26,16,57,23.20
2012,05,26,16,58,23.30
2012,05,26,16,59,23.40
2012,05,26,17,00,23.60
2012,05,26,17,01,23.70
2012,05,26,17,02,23.80
2012,05,26,17,03,23.90
2012,05,26,17,04,24.00
2012,05,26,17,05,24.10
2012,05,26,17,06,24.10
2012,05,26,17,07,24.10
2012,05,26,17,08,24.00
2012,05,26,17,09,23.80
2012,05,26,17,10,23.70
2012,05,26,17,11,23.70
2012,05,26,17,12,23.60
2012,05,26,17,13,23.50
2012,05,26,17,14,23.40
2012,05,26,17,15,23.40
2012,05,26,17,16,23.50
2012,05,26,17,17,23.60
2012,05,26,17,18,23.70
2012,05,26,17,19,23.70
2012,05,26,17,20,23.90
2012,05,26,17,21,23.90
2012,05,26,17,22,23.80
2012,05,26,17,23,23.70